Regional Weather Roundup
Issued by NWS

Home | Current Version | Previous Version | Text Only | Print | Product List | Glossary On
Versions: 1 2 3 4 5 6 7 8 9 10 11 12 13 14 15 16 17 18 19 20 21 22 23 24 25 26 27 28 29 30 31 32 33 34 35 36 37 38 39 40 41 42 43 44 45 46 47 48 49 50
000
ASUS44 KFWD 311603
RWRTX
NORTH TEXAS HOURLY WEATHER ROUNDUP
NATIONAL WEATHER SERVICE FORT WORTH TX
1100 AM CDT TUE MAY 31 2016

NOTE: "FAIR" INDICATES FEW OR NO CLOUDS BELOW 12,000 FEET WITH NO
SIGNIFICANT WEATHER AND/OR OBSTRUCTIONS TO VISIBILITY.

TXZ118-119-311700-
DALLAS/FORT WORTH METROPLEX

CITY           SKY/WX    TMP DP  RH WIND       PRES   REMARKS
DFW AIRPORT    CLOUDY    81  71  71 SW9       29.90F
DALLAS LOVE    CLOUDY    83  73  72 W7        29.90F
FTW MEACHAM    CLOUDY    82  71  69 S10       29.90F
DAL-EXECUTIVE  CLOUDY    81  72  74 SW7       29.90F
FTW-ALLIANCE   CLOUDY    80  71  74 S9        29.90F
FTW-NAS-JRB    CLOUDY    82  72  71 S9        29.90F
FTW-SPINKS     MOSUNNY   82  70  65 CALM      29.92F
ARLINGTON      CLOUDY    84  71  65 SW8       29.90F
GRAND PRAIRIE  SUNNY     81  70  69 S8        29.92S
ADDISON        MOSUNNY   82  73  74 SW8       29.91F
MESQUITE       MOSUNNY   82  73  74 S6        29.91F
LANCASTER      CLOUDY    81  71  70 S8        29.92S
$$

TXZ091>094-102>105-117-120-121-131>134-311700-
NORTH CENTRAL TEXAS

CITY           SKY/WX    TMP DP  RH WIND       PRES   REMARKS
SHRMAN/DENISON CLOUDY    76  68  76 S8        29.91F
BRIDGEPORT     CLOUDY    79  71  77 S7        29.92F
DECATUR        CLOUDY    78  69  74 S6        29.91F
DENTON         CLOUDY    79  71  76 SW9       29.90F
MCKINNEY       CLOUDY    83  72  69 VRB3      29.90F
ROCKWALL       CLOUDY    81  74  79 CALM      29.89F
TERRELL        PTSUNNY   81  73  76 SW7       29.91F
WAXAHACHIE     CLOUDY    79  72  78 SW8       29.92F
CLEBURNE       CLOUDY    79  75  89 S6        29.93F
GRANBURY       CLOUDY    81  71  72 SE5       29.91F
$$

TXZ083>090-098>101-113>116-127>130-139>142-154-155-311700-
WESTERN NORTH TEXAS

CITY           SKY/WX    TMP DP  RH WIND       PRES   REMARKS
WICHITA FALLS  TSTM      74  68  81 NE7       29.91S
WF-KICKAPOO    CLOUDY    75  69  82 NE10G18   29.91F THUNDER
VERNON         CLOUDY    76  63  64 NE13      29.92F
ABILENE        CLOUDY    76  67  73 S9        29.94F
ABILENE-DYESS  CLOUDY    80  64  57 S9        29.92S
MINERAL WELLS  CLOUDY    75  70  84 S5        29.89F
STEPHENVILLE   CLOUDY    78  71  78 SE6       29.94F
COMANCHE       CLOUDY    80  72  76 S12       29.92F
BROWNWOOD      CLOUDY    77  72  83 S12       29.92F
COLEMAN        CLOUDY    75  68  78 S5        29.94F
$$

TXZ143>147-156>162-174-175-311700-
CENTRAL TEXAS

CITY           SKY/WX    TMP DP  RH WIND       PRES   REMARKS
WACO           CLOUDY    80  71  74 S9        29.91F
WACO-TSTC      PTSUNNY   82  72  69 S8        29.92S
HILLSBORO      CLOUDY    79  72  78 S8        29.92F
CORSICANA      CLOUDY    81  72  74 SW12      29.93S
MEXIA          CLOUDY    78  73  84 S7        29.92S
HEARNE         CLOUDY    78  74  86 CALM      29.93S
CAMERON        CLOUDY    80  74  81 S9        29.91S
TEMPLE         CLOUDY    79  74  84 S9        29.91F
KILLEEN        CLOUDY    79  73  82 S10       29.91S
KILLEEN-SKYLRK CLOUDY    79  73  82 S8        29.91F
FORT HOOD      CLOUDY    78  72  82 S6        29.90S
GATESVILLE     CLOUDY    81  72  74 S7        29.94S
HAMILTON       CLOUDY    79  73  82 S9        29.93S
LAMPASAS       CLOUDY    81  74  80 S9        29.90F
$$

TXZ095>097-106>112-122>126-135>138-148>153-164>167-311700-
EAST TEXAS

CITY           SKY/WX    TMP DP  RH WIND       PRES   REMARKS
PARIS          MOSUNNY   81  66  61 SW7       29.92F
SULPHUR SPRNGS CLOUDY    83  71  68 CALM      29.94F
MOUNT PLEASANT SUNNY     82  70  65 CALM      29.93F
MINEOLA        MOSUNNY   82  72  69 S3        29.93S
TYLER          SUNNY     83  71  67 S8        29.92S
LONGVIEW       MOSUNNY   82  72  71 CALM      29.92S
MARSHALL       SUNNY     80  70  69 S5        29.95S
ATHENS         PTSUNNY   79  73  83 S5        29.91S
PALESTINE      CLOUDY    78  73  83 SW6       29.95S
JACKSONVILLE   MOSUNNY   80  71  75 S5        29.96S
CENTER         FAIR      83  71  68 CALM      29.93S
NACOGDOCHES    SUNNY     81  72  74 S3        29.94S
LUFKIN         MOSUNNY   82  70  66 VRB3      29.94R
$$

SUPPLEMENTAL OBSERVATIONS (CENTRAL)

CITY           SKY/WX    TMP DP  RH WIND       PRES   REMARKS
$$

SUPPLEMENTAL OBSERVATIONS (WEST)

CITY           SKY/WX    TMP DP  RH WIND       PRES   REMARKS
$$

SUPPLEMENTAL OBSERVATIONS (EAST)

CITY           SKY/WX    TMP DP  RH WIND       PRES   REMARKS
$$

SUPPLEMENTAL OBSERVATIONS ARE A COLLECTION OF AUTOMATED INSTRUMENTS
THAT ARE MAINTAINED BY A VARIETY OF FEDERAL AND STATE AGENCIES.
CERTAIN ELEMENTS...SUCH AS HUMIDITY VALUES AND SUSTAINED WIND
SPEEDS...MAY BE APPROXIMATED.




USA.gov is the U.S. government's official web portal to all federal, state and local government web resources and services.